Weather History for Camarillo, CA

Change the Weather History Date:

Tuesday, November 13, 2012

  Actual Average Record
Temperature  
Mean Temperature 64 °F 59 °F  
Max Temperature 84 °F 71 °F 92 °F (1949)
Min Temperature 43 °F 48 °F 37 °F (2000)
Degree Days  
Heating Degree Days 1 6  
Month to date heating degree days 66 71  
Since 1 July heating degree days 141 194  
Cooling Degree Days 0 1  
Month to date cooling degree days 21 13  
Year to date cooling degree days 387 329  
Growing Degree Days 14 (Base 50)    
Moisture  
Dew Point 21 °F    
Average Humidity 25    
Maximum Humidity 45    
Minimum Humidity 4    
Precipitation  
Precipitation 0.00 in 0.05 in 0.43 in (1988)
Month to date precipitation 0.03 0.63  
Year to date precipitation 5.75 12.48  
Since 1 July precipitation 0.07 1.50  
Sea Level Pressure  
Sea Level Pressure 30.08 in    
Wind  
Wind Speed 6 mph (NNE)    
Max Wind Speed 15 mph    
Max Gust Speed 20 mph    
Visibility 10 miles    
Events      
T = Trace of Precipitation, MM = Missing Value Source: NWS Daily Summary

Daily Weather History Graph

Daily Weather History Graph

Search for Another Location

Airport:

Trip Planner

Search our weather history database for the weather conditions in past years. The results will help you decide how hot, cold, wet, or windy it might be!

Date:

Astronomy

Nov. 13, 2012 Rise Set
Actual Time 6:27 AM PST 4:53 PM PST
Civil Twilight 6:01 AM PST 5:19 PM PST
Nautical Twilight 5:31 AM PST 5:49 PM PST
Astronomical Twilight 5:01 AM PST 6:19 PM PST
Moon 6:11 AM PST (11/13) 4:52 PM PST (11/13)
Length of Visible Light 11h 18m
Length of Day
10h 25m
Waning Crescent, 0% of the Moon is Illuminated
Nov 13
Waning Crescent
Nov 13
New
Nov 20
First Quarter
Nov 28
Full
Dec 6
Last Quarter

Hourly Weather History & Observations

Time (PST) Temp. Dew Point Humidity Pressure Visibility Wind Dir Wind Speed Gust Speed Precip Events Conditions
12:55 AM 53.1 °F 17.1 °F 24% 30.15 in 10.0 mi NNW 6.9 mph - N/A   Clear
1:55 AM 52.0 °F 14.0 °F 22% 30.14 in 10.0 mi Variable 6.9 mph - N/A   Clear
2:55 AM 52.0 °F 15.1 °F 23% 30.14 in 10.0 mi North 5.8 mph - N/A   Clear
3:55 AM 46.9 °F 14.0 °F 27% 30.13 in 10.0 mi NNE 8.1 mph - N/A   Clear
4:55 AM 46.9 °F 21.9 °F 37% 30.12 in 10.0 mi Calm Calm - N/A   Clear
5:55 AM 52.0 °F 15.1 °F 23% 30.12 in 10.0 mi Calm Calm - N/A   Clear
6:55 AM 50.0 °F 18.0 °F 28% 30.13 in 10.0 mi NW 3.5 mph - N/A   Clear
7:55 AM 64.0 °F 14.0 °F 14% 30.13 in 10.0 mi Calm Calm - N/A   Clear
8:55 AM 73.0 °F 6.1 °F 7% 30.12 in 10.0 mi East 9.2 mph - N/A   Clear
9:55 AM 79.0 °F 1.0 °F 5% 30.11 in 10.0 mi East 13.8 mph - N/A   Clear
10:55 AM 82.9 °F 1.9 °F 4% 30.09 in 10.0 mi East 10.4 mph - N/A   Clear
11:55 AM 72.0 °F 39.9 °F 31% 30.09 in 10.0 mi SW 9.2 mph - N/A   Clear
12:55 PM 75.9 °F 28.0 °F 17% 30.06 in 10.0 mi WSW 6.9 mph - N/A   Clear
1:55 PM 75.0 °F 30.9 °F 20% 30.04 in 10.0 mi SW 6.9 mph - N/A   Clear
2:55 PM 75.0 °F 27.0 °F 17% 30.04 in 10.0 mi West 5.8 mph - N/A   Clear
3:55 PM 71.1 °F 30.9 °F 23% 30.04 in 10.0 mi SW 4.6 mph - N/A   Clear
4:55 PM 66.9 °F 34.0 °F 30% 30.04 in 10.0 mi Calm Calm - N/A   Clear
5:55 PM 64.0 °F 34.0 °F 33% 30.04 in 10.0 mi Calm Calm - N/A   Clear
6:55 PM 59.0 °F 30.0 °F 33% 30.04 in 10.0 mi NE 3.5 mph - N/A   Clear
7:55 PM 53.1 °F 32.0 °F 45% 30.04 in 10.0 mi Calm Calm - N/A   Clear
8:55 PM 55.9 °F 25.0 °F 30% 30.04 in 10.0 mi NE 8.1 mph - N/A   Clear
9:55 PM 62.1 °F 15.1 °F 16% 30.04 in 10.0 mi ENE 9.2 mph - N/A   Clear
10:55 PM 62.1 °F 12.9 °F 15% 30.05 in 10.0 mi ENE 12.7 mph - N/A   Clear
11:55 PM 59.0 °F 15.1 °F 18% 30.06 in 10.0 mi NNE 4.6 mph - N/A   Clear